Location: Warszawa
(52.2500°N, 21.0000°E)
Time: 15:16:07
(UTC+01:00)

Vanguard 2 - Pass Details

Date: 13 February 2023
Orbit: 553 x 2927 km, 32.9° (Epoch: 24 March)

Event Time Altitude Azimuth Distance (km) Brightness Sun altitude
Rises 22:31:17 0° 257° (WSW) 5,069 11.9 -47.9°
Reaches altitude 10° 22:34:56 10° 246° (WSW) 4,413 11.4 -48.1°
Enters shadow 22:35:59 13° 242° (WSW) 4,263 11.2 -48.2°
Maximum altitude 22:44:56 28° 195° (SSW) 3,893 - -48.8°
Drops below altitude 10° 22:57:44 10° 146° (SE) 5,688 - -49.6°
Sets 23:03:21 0° 136° (SE) 6,774 - -49.8°
